Regional Weather Roundup
Issued by NWS

Home | Current Version | Previous Version | Text Only | Print | Product List | Glossary On
Versions: 1 2 3 4 5 6 7 8 9 10 11 12 13 14 15 16 17 18 19 20 21 22 23 24 25 26 27 28 29 30 31 32 33 34 35 36 37 38 39 40 41 42 43 44 45 46 47 48 49 50
000
ASUS43 KBIS 251531
RWRND
NORTH DAKOTA REGIONAL WEATHER ROUNDUP
NATIONAL WEATHER SERVICE EASTERN NORTH DAKOTA/GRAND FORKS ND
1000 AM CDT WED APR 25 2018

  NOTE: "FAIR" INDICATES FEW OR NO CLOUDS BELOW 12,000 FEET WITH NO
  SIGNIFICANT WEATHER AND/OR OBSTRUCTIONS TO VISIBILITY.

NDZ001>003-009>011-017-251600-
...NORTHWEST NORTH DAKOTA...

CITY           SKY/WX    TMP DP  RH WIND       PRES   REMARKS
WILLISTON      FAIR      49  31  49 SW14      29.99F
MINOT          FAIR      52  30  43 S16       30.00F
MINOT AFB      FAIR      53  30  41 SW16      29.99F
$$

NDZ018>021-031>035-040>046-251600-
...SOUTHWEST NORTH DAKOTA...

CITY           SKY/WX    TMP DP  RH WIND       PRES   REMARKS
BISMARCK       FAIR      51  31  46 SW8       30.15F
DICKINSON      FAIR      50  30  46 SW17      30.07F
GARRISON         N/A     48  31  51 SW16      30.06F
HETTINGER      FAIR      48  30  49 S16       30.15F
$$

NDZ004>008-012>016-024-026-027-054-251600-
...NORTHEAST NORTH DAKOTA...

CITY           SKY/WX    TMP DP  RH WIND       PRES   REMARKS
GRAND FORKS    FAIR      49  36  61 SW14      30.12F
GRAND FORKS AF FAIR      53  34  49 SW14      30.10F
DEVILS LAKE    FAIR      48  31  51 SW14      30.09F
$$

NDZ022-023-025-028>030-036>039-047>053-251600-
...SOUTHEAST NORTH DAKOTA...

CITY           SKY/WX    TMP DP  RH WIND       PRES   REMARKS
JAMESTOWN      FAIR      53  30  41 SW16      30.14F
FARGO          FAIR      49  31  49 S15       30.20F
WAHPETON       FAIR      46  30  53 S13       30.23F
$$




USA.gov is the U.S. government's official web portal to all federal, state and local government web resources and services.